Regional Weather Roundup
Issued by NWS

Home | Current Version | Previous Version | Text Only | Print | Product List | Glossary On
Versions: 1 2 3 4 5 6 7 8 9 10 11 12 13 14 15 16 17 18 19 20 21 22 23 24 25 26 27 28 29 30 31 32 33 34 35 36 37 38 39 40 41 42 43 44 45 46 47 48 49 50
704
ASUS43 KFSD 281502
RWRSD

WEATHER ROUNDUP FOR SOUTH DAKOTA
NATIONAL WEATHER SERVICE SIOUX FALLS SD
1000 AM CDT THU APR 28 2016

NOTE: "FAIR" INDICATES FEW OR NO CLOUDS BELOW 12,000 FEET WITH NO
SIGNIFICANT WEATHER AND/OR OBSTRUCTIONS TO VISIBILITY.


SDZ001>005-009-010-012>017-281600-
NORTHWEST AND NORTH CENTRAL SOUTH DAKOTA

CITY           SKY/WX    TMP DP  RH WIND       PRES   REMARKS
BUFFALO          N/A     35  32  88 NE10      29.99R WCI  27
FAITH            N/A     33  31  92 NE8       30.04R WCI  26
MOBRIDGE       CLOUDY    40  36  86 N7        30.04R
$$

SDZ012>016-024>037-041>051-057-063-072>074-281600-
SOUTHWEST AND SOUTH CENTRAL SOUTH DAKOTA

CITY           SKY/WX    TMP DP  RH WIND       PRES   REMARKS
RAPID CTY ARPT FOG       33  33 100 N8        30.03S VSB 1   WCI  26
PIERRE         CLOUDY    38  34  85 N9        30.02R
CUSTER         CLOUDY    30  22  72 N8        29.95R WCI  22
ELLSWORTH AFB  FOG       33  33 100 N10       30.03R VSB 1/8 WCI  25
PHILIP         CLOUDY    37  35  92 N8        30.04R
PINE RIDGE     CLOUDY    34  31  88 N8        30.02R WCI  27
WINNER         CLOUDY    39  35  86 NW10      30.00R
$$

SDZ004>011-016>023-039-040-281600-
NORTHEAST SOUTH DAKOTA

CITY           SKY/WX    TMP DP  RH WIND       PRES   REMARKS
ABERDEEN       CLOUDY    43  33  68 NE12      30.03R
WATERTOWN      LGT SNOW  34  32  92 NE7       29.97R FOG     WCI  28
BROOKINGS      LGT SNOW  34  33  96 N7        29.95R FOG     WCI  28
SISSETON         N/A     41  28  60 E9        30.01R
$$

SDZ017-020-022-023-036>040-048>070-281600-
SOUTHEAST SOUTH DAKOTA

CITY           SKY/WX    TMP DP  RH WIND       PRES   REMARKS
SIOUX FALLS    LGT RAIN  40  37  89 N9        29.92R
HURON          LGT RAIN  38  35  89 NE12      29.99S
MITCHELL       LGT RAIN  38  36  92 N10       29.98R
YANKTON        CLOUDY    43  37  81 N12       29.92S
$$

ABBREVIATIONS USED IN REMARKS
   TC - TEMPERATURE IN CELSIUS
  WCI - WIND CHILL INDEX
   HX - HEAT INDEX
  VSB - VISIBILITY





USA.gov is the U.S. government's official web portal to all federal, state and local government web resources and services.